This is the latest recevied weather packets stored in our database for station/object KB0BDN-13. If no packets are shown the sender has not sent any weather packets the latest 10 day(s).
| Time | Temp. | Humidity | Pressure | Rain* | Wind** | Luminosity | Snow |
|---|---|---|---|---|---|---|---|
| 1788663697 | 16.11° C | 86% | 1012.4 hPa | 0 mm | - | - | - |
| 1788663550 | 16.11° C | 86% | 1012.3 hPa | 0 mm | - | - | - |
| 1788662797 | 16.67° C | 84% | 1012.3 hPa | 0 mm | - | - | - |
| 1788662651 | 16.67° C | 84% | 1011.8 hPa | 0 mm | - | - | - |
| 1788661897 | 17.22° C | 83% | 1011.8 hPa | 0 mm | - | - | - |
| 1788661751 | 17.22° C | 83% | 1012 hPa | 0 mm | - | - | - |
| 1788660997 | 17.22° C | 83% | 1012 hPa | 0 mm | - | - | - |
| 1788660097 | 17.22° C | 85% | 1011.9 hPa | 0 mm | - | - | - |
| 1788659950 | 17.22° C | 85% | 1011.8 hPa | 0 mm | - | - | - |
| 1788659197 | 17.22° C | 86% | 1011.8 hPa | 0 mm | - | - | - |
| 1788659050 | 17.22° C | 85% | 1011.4 hPa | 0 mm | - | - | - |
| 1788658297 | 17.22° C | 87% | 1011.4 hPa | 0 mm | - | - | - |
| 1788658150 | 17.22° C | 86% | 1011.4 hPa | 0 mm | - | - | - |
| 1788657397 | 17.22° C | 87% | 1011.4 hPa | 0 mm | - | - | - |
| 1788656496 | 17.22° C | 87% | 1011.4 hPa | 0 mm | - | - | - |
| 1788656350 | 17.22° C | 87% | 1011.3 hPa | 0 mm | - | - | - |
| 1788655596 | 17.22° C | 88% | 1011.3 hPa | 0 mm | - | - | - |
| 1788655490 | 17.22° C | 88% | 1011.1 hPa | 0 mm | - | - | - |
| 1788655449 | 17.22° C | 88% | 1011.1 hPa | 0 mm | - | - | - |
| 1788654696 | 17.78° C | 86% | 1011.1 hPa | 0 mm | - | - | - |
| 1788653796 | 18.33° C | 85% | 1011 hPa | 0 mm | - | - | - |
| 1788652896 | 18.89° C | 82% | 1010.9 hPa | 0 mm | - | - | - |
| 1788651996 | 20° C | 81% | 1010.9 hPa | 0 mm | - | - | - |
| 1788651854 | 20° C | 82% | 1010.9 hPa | 0 mm | - | - | - |
| 1788651096 | 20.56° C | 82% | 1010.9 hPa | 0 mm | - | - | - |
* Rain latest hour (hover to see other rain measurements)
** Current wind speed in m/s (hover to see current wind gust speed)